Hourly Weather Holovky

Today, 11 April, Sunday

Time Temperature Precipitation Wind Pressure Humidity
00:00 +3°C° 0 mm 3 mps 752 mmHg 68%
01:00 +3°C° 0 mm 3 mps 752 mmHg 68%
02:00 +3°C° 0 mm 3 mps 752 mmHg 70%
03:00 +2°C° 0 mm 3 mps 752 mmHg 70%
04:00 +2°C° 0 mm 3 mps 752 mmHg 71%
05:00 +2°C° 0 mm 3 mps 752 mmHg 72%
06:00 +4°C° 0 mm 3 mps 753 mmHg 67%
07:00 +5°C° 0 mm 3 mps 753 mmHg 62%
08:00 +8°C° 0 mm 3 mps 753 mmHg 57%
09:00 +9°C° 0 mm 3 mps 754 mmHg 51%
10:00 +11°C° 0 mm 3 mps 754 mmHg 46%
11:00 +13°C° 0 mm 4 mps 754 mmHg 40%
12:00 +13°C° 0 mm 4 mps 753 mmHg 39%
13:00 +14°C° 0 mm 4 mps 753 mmHg 37%
14:00 +16°C° 0 mm 3 mps 753 mmHg 35%
15:00 +14°C° 0 mm 3 mps 753 mmHg 37%
16:00 +14°C° 0 mm 3 mps 753 mmHg 39%
17:00 +14°C° 0 mm 3 mps 753 mmHg 41%
18:00 +12°C° 0 mm 3 mps 753 mmHg 47%
19:00 +10°C° 0 mm 3 mps 753 mmHg 53%
20:00 +8°C° 0 mm 3 mps 753 mmHg 58%
21:00 +8°C° 0 mm 3 mps 753 mmHg 59%
22:00 +7°C° 0 mm 3 mps 753 mmHg 60%
23:00 +5°C° 0 mm 3 mps 753 mmHg 61%

Tomorrow, 12 April, Monday

Time Temperature Precipitation Wind Pressure Humidity
00:00 +6°C° 0 mm 2 mps 753 mmHg 62%
01:00 +5°C° 0 mm 2 mps 753 mmHg 63%
02:00 +5°C° 0 mm 2 mps 753 mmHg 64%
03:00 +5°C° 0 mm 2 mps 753 mmHg 66%
04:00 +4°C° 0 mm 2 mps 753 mmHg 67%
05:00 +4°C° 0 mm 2 mps 752 mmHg 69%
06:00 +5°C° 0 mm 2 mps 752 mmHg 65%
07:00 +7°C° 0 mm 2 mps 752 mmHg 62%
08:00 +9°C° 0 mm 2 mps 752 mmHg 58%
09:00 +10°C° 0 mm 2 mps 752 mmHg 52%
10:00 +13°C° 0 mm 2 mps 751 mmHg 46%
11:00 +14°C° 0 mm 2 mps 751 mmHg 41%
12:00 +15°C° 0 mm 2 mps 751 mmHg 38%
13:00 +16°C° 0 mm 2 mps 750 mmHg 36%
14:00 +17°C° 0 mm 2 mps 750 mmHg 33%
15:00 +16°C° 0 mm 2 mps 750 mmHg 36%
16:00 +16°C° 0 mm 2 mps 749 mmHg 39%
17:00 +16°C° 0 mm 3 mps 749 mmHg 41%
18:00 +13°C° 0 mm 3 mps 749 mmHg 52%
19:00 +11°C° 0 mm 3 mps 750 mmHg 63%
20:00 +9°C° 0 mm 3 mps 750 mmHg 75%
21:00 +9°C° 0 mm 2 mps 750 mmHg 80%
22:00 +8°C° 0 mm 2 mps 749 mmHg 85%
23:00 +9°C° 0 mm 1 mps 749 mmHg 90%

Day after tomorrow, 13 April, Tuesday

Time Temperature Precipitation Wind Pressure Humidity
00:00 +9°C° 0 mm 1 mps 749 mmHg 90%
01:00 +8°C° 0 mm 1 mps 749 mmHg 89%
02:00 +7°C° 0 mm 0 mps 748 mmHg 89%
03:00 +8°C° 0 mm 1 mps 748 mmHg 89%
04:00 +8°C° 0 mm 1 mps 748 mmHg 89%
05:00 +7°C° 0 mm 2 mps 748 mmHg 89%
06:00 +8°C° 0 mm 2 mps 748 mmHg 87%
07:00 +8°C° 0 mm 2 mps 748 mmHg 85%
08:00 +9°C° 0 mm 2 mps 748 mmHg 83%
09:00 +10°C° 0 mm 2 mps 748 mmHg 82%
10:00 +10°C° 0 mm 2 mps 747 mmHg 82%
11:00 +12°C° 0 mm 2 mps 747 mmHg 81%
12:00 +12°C° 0 mm 2 mps 747 mmHg 79%
13:00 +13°C° 0 mm 2 mps 747 mmHg 78%
14:00 +14°C° 0 mm 1 mps 747 mmHg 77%
15:00 +13°C° 0 mm 1 mps 746 mmHg 80%
16:00 +13°C° 0 mm 1 mps 746 mmHg 82%
17:00 +12°C° 0 mm 1 mps 746 mmHg 85%
18:00 +12°C° 0.1 mm 1 mps 746 mmHg 87%
19:00 +12°C° 0.1 mm 1 mps 746 mmHg 89%
20:00 +11°C° 0.1 mm 1 mps 745 mmHg 91%
21:00 +11°C° 0.1 mm 1 mps 745 mmHg 93%
22:00 +10°C° 0.1 mm 2 mps 745 mmHg 94%
23:00 +10°C° 0.1 mm 2 mps 745 mmHg 95%

14 April, Wednesday

Time Temperature Precipitation Wind Pressure Humidity
00:00 +10°C° 0.2 mm 2 mps 745 mmHg 96%
01:00 +10°C° 0.2 mm 3 mps 745 mmHg 96%
02:00 +9°C° 0.2 mm 3 mps 744 mmHg 96%
03:00 +9°C° 0 mm 3 mps 744 mmHg 96%
04:00 +9°C° 0 mm 3 mps 744 mmHg 95%
05:00 +9°C° 0 mm 3 mps 744 mmHg 95%
06:00 +9°C° 0 mm 3 mps 744 mmHg 90%
07:00 +10°C° 0 mm 4 mps 744 mmHg 86%
08:00 +10°C° 0 mm 4 mps 745 mmHg 82%
09:00 +11°C° 0 mm 4 mps 745 mmHg 76%
10:00 +12°C° 0 mm 5 mps 745 mmHg 70%
11:00 +13°C° 0 mm 5 mps 744 mmHg 64%
12:00 +13°C° 0 mm 5 mps 744 mmHg 61%
13:00 +14°C° 0 mm 6 mps 744 mmHg 58%
14:00 +14°C° 0 mm 6 mps 744 mmHg 55%
15:00 +14°C° 0 mm 5 mps 744 mmHg 59%
16:00 +13°C° 0 mm 4 mps 744 mmHg 62%
17:00 +13°C° 0 mm 4 mps 744 mmHg 66%
18:00 +12°C° 0 mm 3 mps 744 mmHg 71%
19:00 +10°C° 0 mm 2 mps 744 mmHg 77%
20:00 +9°C° 0 mm 2 mps 744 mmHg 83%
21:00 +10°C° 0 mm 1 mps 744 mmHg 83%
22:00 +10°C° 0 mm 1 mps 744 mmHg 83%
23:00 +10°C° 0 mm 1 mps 744 mmHg 82%

15 April, Thursday

Time Temperature Precipitation Wind Pressure Humidity
00:00 +10°C° 0 mm 1 mps 744 mmHg 82%
01:00 +10°C° 0 mm 1 mps 744 mmHg 82%
02:00 +9°C° 0 mm 1 mps 743 mmHg 82%
03:00 +9°C° 0 mm 1 mps 743 mmHg 83%
04:00 +9°C° 0 mm 1 mps 743 mmHg 83%
05:00 +9°C° 0 mm 1 mps 743 mmHg 84%
06:00 +10°C° 0 mm 1 mps 744 mmHg 80%
07:00 +11°C° 0 mm 1 mps 744 mmHg 77%
08:00 +12°C° 0 mm 1 mps 744 mmHg 73%
09:00 +13°C° 0.1 mm 1 mps 744 mmHg 67%
10:00 +14°C° 0.1 mm 1 mps 744 mmHg 62%
11:00 +15°C° 0.1 mm 2 mps 744 mmHg 56%
12:00 +16°C° 0.1 mm 2 mps 743 mmHg 54%
13:00 +16°C° 0.1 mm 2 mps 743 mmHg 51%
14:00 +17°C° 0.1 mm 2 mps 743 mmHg 48%
15:00 +16°C° 0.1 mm 2 mps 743 mmHg 51%
16:00 +16°C° 0.1 mm 2 mps 743 mmHg 54%
17:00 +16°C° 0.1 mm 2 mps 743 mmHg 56%
18:00 +13°C° 0.1 mm 3 mps 743 mmHg 63%
19:00 +12°C° 0.1 mm 3 mps 743 mmHg 70%
20:00 +11°C° 0.1 mm 3 mps 744 mmHg 77%
21:00 +10°C° 0 mm 3 mps 744 mmHg 81%
22:00 +9°C° 0 mm 3 mps 744 mmHg 85%
23:00 +9°C° 0 mm 3 mps 744 mmHg 90%

16 April, Friday

Time Temperature Precipitation Wind Pressure Humidity
00:00 +7°C° 0 mm 4 mps 743 mmHg 91%
01:00 +7°C° 0 mm 4 mps 743 mmHg 92%
02:00 +7°C° 0 mm 4 mps 743 mmHg 93%
03:00 +7°C° 0 mm 4 mps 743 mmHg 93%
04:00 +7°C° 0 mm 4 mps 743 mmHg 93%
05:00 +7°C° 0 mm 4 mps 743 mmHg 93%
06:00 +7°C° 0 mm 4 mps 744 mmHg 92%
07:00 +8°C° 0 mm 5 mps 744 mmHg 91%
08:00 +8°C° 0 mm 5 mps 744 mmHg 89%
09:00 +8°C° 0 mm 6 mps 744 mmHg 88%
10:00 +8°C° 0 mm 6 mps 744 mmHg 86%
11:00 +8°C° 0 mm 6 mps 745 mmHg 84%
12:00 +8°C° 0.1 mm 6 mps 745 mmHg 84%
13:00 +8°C° 0.1 mm 6 mps 745 mmHg 85%
14:00 +8°C° 0.1 mm 7 mps 745 mmHg 86%
15:00 +8°C° 0.2 mm 7 mps 746 mmHg 85%
16:00 +8°C° 0.2 mm 7 mps 746 mmHg 85%
17:00 +8°C° 0.2 mm 7 mps 746 mmHg 85%
18:00 +6°C° 0 mm 7 mps 747 mmHg 82%
19:00 +6°C° 0 mm 7 mps 747 mmHg 80%
20:00 +6°C° 0 mm 7 mps 748 mmHg 78%
21:00 +5°C° 0.1 mm 7 mps 748 mmHg 78%
22:00 +5°C° 0.1 mm 7 mps 749 mmHg 77%
23:00 +4°C° 0.1 mm 7 mps 749 mmHg 77%
Show more